Regional Weather Roundup
Issued by NWS Kansas City/Pleasant Hill, MO

Home | Current Version | Previous Version | Graphics & Text | Print | Product List | Glossary Off
Versions: 1 2 3 4 5 6 7 8 9 10 11 12 13 14 15 16 17 18 19 20 21 22 23 24 25 26 27 28 29 30 31 32 33 34 35 36 37 38 39 40 41 42 43 44 45 46 47 48 49 50

000
ASUS43 KEAX 240210
RWREAX

WEATHER ROUNDUP FOR EASTERN KANSAS AND NORTHWEST MISSOURI
NATIONAL WEATHER SERVICE KANSAS CITY/PLEASANT HILL MO
900 PM CDT WED JUL 23 2014

KSZ040-057-103>105-MOZ028-029-037-043-240300-
...KANSAS CITY METROPOLITAN AREA...

CITY           SKY/WX    TMP DP  RH WIND       PRES   REMARKS
K.C. INTL      PTCLDY    77  64  64 NE8       30.12R
K.C. DOWNTOWN  CLEAR     80  63  55 NE10      30.10R
LEES SUMMIT    CLEAR     78  63  59 NE6       30.12R
OLATHE - IXD   CLEAR     79  63  57 E8        30.12R
OLATHE - OJC   CLEAR     78  61  55 E7        30.11R
LAWRENCE       CLEAR     75  66  73 N3        30.11R

$$

MOZ001>008-011>017-020>025-030>033-038>040-044>046-053-054-240300-
...NORTHERN AND CENTRAL MISSOURI...

CITY           SKY/WX    TMP DP  RH WIND       PRES   REMARKS
ST. JOSEPH     CLEAR     77  65  66 NE6       30.13R
MOSBY          CLEAR     77  63  61 NE3       30.11S
WHITEMAN AFB   CLEAR     75  55  48 NE6       30.10R
CLINTON        CLEAR     75  66  73 CALM      30.10R
SEDALIA        CLEAR     76  65  68 NE5       30.11R
WARSAW         NOT AVBL
MARSHALL       CLEAR     79  64  61 NE8       30.12S
CHILLICOTHE      N/A     76  60  57 NE5       30.14R
MOBERLY        CLEAR     70  61  73 NE7       30.15R
KIRKSVILLE     CLEAR     67  60  78 NE5       30.16R

$$

MOZ041-047>049-056>058-063>065-088>090-097-240300-
...EASTERN AND SOUTHERN MISSOURI...

CITY           SKY/WX    TMP DP  RH WIND       PRES   REMARKS
ST. LOUIS INTL PTCLDY    76  60  57 N9        30.11R
SPIRIT OF STL  CLEAR     76  60  57 NE6       30.09R
COLUMBIA       CLEAR     73  63  70 NE10      30.11S
JEFFERSON CITY CLEAR     78  63  59 NE9       30.09R
MEXICO         CLEAR     72  66  83 NE5       30.13R
HANNIBAL       CLEAR     70  55  60 CALM      30.14R
ROLLA          CLOUDY    77  66  68 NE9       30.09R
OSAGE BEACH    CLEAR     79  63  57 NE8       30.09R
SPRINGFIELD    CLEAR     77  70  79 S3        30.09R
BRANSON        PTCLDY    73  72  94 E7        30.09S
NEVADA         CLEAR     75  66  73 N6        30.10S
JOPLIN         CLEAR     79  67  66 NE3       30.07R
WEST PLAINS    CLEAR     71  67  87 CALM      30.10R
MALDEN         MOCLDY    75  70  83 W5        30.05R

$$

IAZ060-094-KSZ022-034>040-054-083-096-NEZ052-066-093-240300-
...KANSAS...SOUTHEAST NEBRASKA AND IOWA...

CITY           SKY/WX    TMP DP  RH WIND       PRES   REMARKS
TOPEKA         CLEAR     80  66  62 NE5       30.12R
MANHATTAN      CLEAR     80  62  54 E5        30.12R
EMPORIA        CLEAR     77  63  61 NE8       30.11R
CHANUTE        CLEAR     80  65  59 E7        30.09R
WICHITA        PTCLDY    81  64  56 E8        30.10R
OMAHA          PTCLDY    78  61  55 NE5       30.14S
LINCOLN        CLEAR     77  60  55 NE8       30.15R
FALLS CITY     CLEAR     76  66  71 E3        30.13R
LAMONI         CLEAR     71  59  65 NE6       30.15R
DES MOINES     CLEAR     76  57  51 E6        30.14S

$$



USA.gov is the U.S. government's official web portal to all federal, state and local government web resources and services.